Flag for Brazil Weather past 2 weeks in Foz do Iguaçu, Paraná, Brazil

Now
86 °F

Scattered clouds.


Feels Like: 93 °F
Forecast: 74 / 85 °F
Wind: 12 mph from North

Location: Foz Do Iguacu Aeroporto

Current Time: Mar 4, 2015 at 10:20:00 AM

Latest Report: Mar 4, 2015 at 10:00 AM


Visibility: N/A

Pressure: 29.95 "Hg

Humidity: 66%

Dew point: 73 °F

Location of Foz do IguaçuLocation

Historic Weather in Foz do Iguaçu — Graph

°F

Foz do Iguaçu temperature yesterday

Maximum temperature yesterday: 95 °F (at 3:00 PM)
Minimum temperature yesterday: 75 °F (at 2:00 AM)
Average temperature yesterday: 81 °F

Past Weeks' High & Low Weather Summary

 TemperatureHumidityPressure
High95 °F (Mar 3, 3:00 PM)100% (Feb 17, 8:00 PM)30.07 "Hg (Feb 17, 8:00 PM)
Low39 °F (Feb 17, 8:00 PM)49% (Feb 22, 3:00 PM)29.36 "Hg (Feb 22, 4:00 AM)
Average79 °F81%29.89 "Hg
* Reported Feb 17 9:00 AM — Mar 4 8:00 AM, Foz do Iguaçu, Weather by CustomWeather, © 2015

Note: Actual official high and low records may vary slightly from our data, if they occured in-between our weather recording intervals... More about our weather records

Advertising

Foz do Iguaçu weather history for previous 24 hours

 ConditionsComfort  
Time TempWeatherWind HumidityBarometerVisibility
8:00 AM
Wed, Mar 4
77 °FScattered clouds.5 mph83%29.92 "HgN/A
7:00 AM73 °FScattered clouds.7 mph94%29.89 "HgN/A
6:00 AM73 °FSunny.6 mph94%29.86 "Hg10 mi
5:00 AM73 °FClear.3 mph89%29.86 "Hg10 mi
4:00 AM73 °FClear.5 mph89%29.86 "Hg10 mi
3:00 AM73 °FClear.3 mph89%29.86 "Hg10 mi
2:00 AM73 °FClear.5 mph89%29.89 "Hg10 mi
1:00 AM75 °FClear.6 mph89%29.89 "Hg10 mi
12:00 AM75 °FClear.7 mph89%29.89 "Hg10 mi
11:00 PM
Tue, Mar 3
75 °FPassing clouds.2 mph89%29.89 "HgN/A
10:00 PM75 °FPassing clouds.6 mph89%29.86 "HgN/A
9:00 PM75 °FPassing clouds.9 mph89%29.86 "HgN/A
8:00 PM77 °FPassing clouds.8 mph83%29.83 "HgN/A
7:00 PM79 °FPassing clouds.5 mph79%29.83 "HgN/A
6:00 PM81 °FScattered clouds.6 mph70%29.83 "HgN/A
5:00 PM79 °FThundershowers. Scattered clouds.10 mph74%N/AN/A
4:00 PM84 °FThunderstorms. Scattered clouds.17 mph66%29.86 "HgN/A
3:00 PM95 °FScattered clouds.9 mph50%29.86 "HgN/A
2:00 PM93 °FScattered clouds.6 mph53%29.89 "HgN/A
1:00 PM93 °FScattered clouds.9 mph49%29.89 "HgN/A
12:00 PM91 °FScattered clouds.10 mph52%29.92 "HgN/A
11:00 AM90 °FPassing clouds.9 mph55%29.92 "HgN/A
10:00 AM86 °FSunny.8 mph66%29.92 "Hg10 mi
Weather by CustomWeather, © 2015

See weather overviewHow to use our weather pages